[[{"header":{"parameterUnit":"m.s-1","parameterCategory":1,"la1":30.2991,"la2":30.254,"lo1":-89.0895,"lo2":-89.0444,"dy":0.0017,"dx":0.0017,"nx":28,"ny":28,"refTime":"2024-08-09T15:00:00:Z","depth":0,"parameterNumber":2,"parameterNumberName":"U-component_of_WINDS"},"data":[0,0,0,0,0,0,0,0,0,0,0,0,0,0,0,0,0,0,0,0,0,0,0,0,0,0,0,0,0,0,0,0,0,0,0,0,0,0,0,0,0,0,0,0,0,0,0,0,0,0,0,0,0,0,0,0,0,0,1.1696,1.1697,0,1.174,1.174,1.1741,1.1743,1.1742,1.1742,1.1741,1.1786,1.1788,1.179,0,0,0,0,0,0,0,0,0,0,0,0,0,1.1616,1.1618,1.1696,1.1697,1.1697,1.174,1.174,1.1741,1.1743,1.1742,1.1742,1.1741,1.1786,1.1788,1.179,0,0,0,0,0,0,0,0,0,0,0,0,0,1.1655,1.1618,1.1696,1.1703,1.1705,1.174,1.174,1.1741,1.1743,1.1742,1.1741,1.1741,1.1785,1.1788,1.179,1.1821,0,0,1.1798,1.1799,0,0,0,0,0,0,0,0,1.1652,1.1658,1.1702,1.1703,1.1704,1.1735,1.1729,1.1768,1.1743,1.1728,1.1741,1.174,1.177,1.1774,1.1784,1.1823,1.1825,1.1798,1.18,1.1801,1.1801,0,0,0,0,0,0,0,1.165,1.1656,1.1714,1.1703,1.1704,1.1705,1.171,1.1736,1.1753,1.173,1.173,1.1735,1.177,1.1781,1.1785,1.1826,1.1798,1.18,1.1802,1.1803,1.1895,1.1896,0,0,0,0,0,0,1.1646,1.1653,1.1712,1.1715,1.1676,1.1707,1.1712,1.1726,1.1753,1.1756,1.1736,1.1735,1.1777,1.1782,1.1786,1.1825,1.1801,1.1803,1.1804,1.1894,1.1895,1.1896,0,0,0,0,0,0,1.1644,1.1651,1.171,1.1684,1.1692,1.1709,1.1725,1.1727,1.1738,1.1757,1.176,1.1743,1.1777,1.1783,1.1813,1.1826,1.1804,1.1806,1.1893,1.1894,1.1895,1.1902,0,0,0,0,0,0,1.1642,1.165,1.1662,1.1685,1.1693,1.1736,1.1726,1.1729,1.1742,1.1742,1.1765,1.1768,1.1777,1.1809,1.1815,1.1829,1.1808,1.1891,1.1893,1.1895,1.1901,1.1903,1.1906,0,0,0,0,0,1.1639,1.1662,1.1662,1.1669,1.1708,1.1736,1.1742,1.175,1.1743,1.1755,1.1768,1.1768,1.1824,1.1812,1.1819,1.1834,1.1891,1.1893,1.1895,1.1899,1.1903,1.1906,0,0,0,0,0,0,1.164,1.1665,1.1666,1.1697,1.1715,1.1737,1.1752,1.1754,1.1774,1.1772,1.1783,1.1788,1.1818,1.1829,1.1815,1.1866,1.1857,1.186,1.1858,1.1861,1.1864,1.186,1.1811,0,0,0,0,0,1.1644,1.1664,1.1685,1.1711,1.172,1.1734,1.1747,1.1752,1.1771,1.1779,1.1794,1.1812,1.1834,1.1848,1.187,1.1903,1.1908,1.1917,1.1919,1.1921,1.1924,1.1943,1.1947,1.1903,1.1903,1.1903,0,0,1.1652,1.1668,1.1681,1.1711,1.1726,1.1747,1.1741,1.1764,1.178,1.1782,1.1811,1.1823,1.1845,1.1877,1.1891,1.1887,1.1938,1.1924,1.1926,1.1927,1.1946,1.195,1.1953,1.1904,1.1904,1.1904,0,0,1.1678,1.1692,1.1715,1.173,1.1752,1.1762,1.1767,1.179,1.1798,1.1827,1.183,1.185,1.1887,1.1903,1.1915,1.1949,1.195,1.1956,1.1969,1.1987,1.1991,1.1994,1.2006,1.201,1.1959,1.1959,1.1959,0,1.1685,1.1717,1.1727,1.175,1.1764,1.1767,1.1791,1.1805,1.1833,1.1843,1.1838,1.1885,1.19,1.1936,1.1944,1.1954,1.1961,1.1952,1.1989,1.1993,1.1996,1.2007,1.2012,1.1959,1.1959,1.1959,1.1959,0,1.1725,1.1748,1.1764,1.1791,1.1807,1.183,1.1843,1.1858,1.1863,1.1874,1.1904,1.1922,1.1948,1.1957,1.1961,1.1993,1.199,1.1987,1.1977,1.2,1.2011,1.2016,1.196,1.196,1.196,1.1959,0,0,1.1751,1.1784,1.179,1.1803,1.1828,1.1846,1.187,1.1895,1.1907,1.1927,1.1948,1.198,1.1978,1.1992,1.1999,1.2015,1.2041,1.201,1.2011,1.2015,1.2078,1.2079,1.2084,1.2042,1.2043,1.2043,1.2076,0,1.178,1.1822,1.1832,1.1868,1.189,1.1894,1.1916,1.1934,1.1945,1.1965,1.1977,1.2,1.1995,1.2004,1.2021,1.2034,1.2053,1.2032,1.2061,1.2062,1.2055,1.209,1.2091,1.2121,1.208,1.2081,1.2081,0,1.1818,1.1838,1.1877,1.19,1.191,1.1928,1.1952,1.1972,1.1993,1.2,1.2017,1.2022,1.2048,1.2038,1.2074,1.2059,1.2072,1.2081,1.2082,1.2085,1.2072,1.2093,1.213,1.2135,1.2088,1.2088,1.2087,0,1.1833,1.187,1.1898,1.1909,1.1937,1.195,1.1963,1.1983,1.1998,1.2019,1.2029,1.2053,1.2066,1.2085,1.2097,1.2089,1.2133,1.2123,1.2139,1.2139,1.2148,1.2147,1.2187,1.2157,1.2157,1.2157,1.2157,0,1.1863,1.1886,1.1906,1.1923,1.195,1.1961,1.1988,1.2,1.2019,1.2039,1.2045,1.2064,1.2079,1.21,1.211,1.2139,1.2145,1.2151,1.2153,1.215,1.2149,1.2158,1.2156,1.2158,1.2158,1.2157,1.2157,0,1.1883,1.1897,1.1928,1.1953,1.196,1.1978,1.1999,1.2017,1.2029,1.2054,1.2061,1.208,1.2105,1.2119,1.2151,1.2158,1.219,1.2191,1.2182,1.2183,1.2198,1.2196,1.2245,1.2252,1.2218,1.2218,1.2218,0,1.1901,1.1919,1.1946,1.196,1.1973,1.1995,1.201,1.2023,1.2039,1.2065,1.2079,1.2105,1.2126,1.2167,1.2184,1.2208,1.221,1.2226,1.2214,1.221,1.221,1.2208,1.221,1.2227,1.2228,1.2228,1.2228,0,1.1931,1.1937,1.1959,1.1983,1.2001,1.2021,1.2041,1.2052,1.2068,1.2086,1.2112,1.2128,1.2161,1.2187,1.2214,1.2227,1.223,1.2232,1.2237,1.2233,1.2227,1.2231,1.2187,1.223,1.223,1.223,1.223,1.223,1.195,1.1967,1.1989,1.2013,1.2029,1.2048,1.2065,1.208,1.2102,1.2129,1.2136,1.2164,1.2186,1.2222,1.2236,1.2258,1.2255,1.2262,1.2264,1.2265,1.2266,1.2225,1.2263,1.2263,1.2263,1.2263,1.2263,0,1.198,1.1995,1.2017,1.2045,1.2064,1.2066,1.2088,1.2104,1.2128,1.2149,1.217,1.22,1.2226,1.2245,1.2271,1.2285,1.2287,1.2291,1.229,1.2293,1.2267,1.226,1.2289,1.2289,1.2289,1.2289,1.2289,1.2289,1.1998,1.2026,1.2036,1.2073,1.2087,1.2114,1.2127,1.2144,1.2161,1.2194,1.2215,1.2228,1.2248,1.2276,1.2299,1.2305,1.2314,1.2317,1.2323,1.2298,1.2295,1.2292,1.2285,1.232,1.232,1.2347,1.2347,1.2347]},{"header":{"parameterUnit":"m.s-1","parameterCategory":1,"la1":30.2991,"la2":30.254,"lo1":-89.0895,"lo2":-89.0444,"dy":0.0017,"dx":0.0017,"nx":28,"ny":28,"refTime":"2024-08-09T15:00:00:Z","depth":0,"parameterNumber":3,"parameterNumberName":"V-component_of_WINDS"},"data":[0,0,0,0,0,0,0,0,0,0,0,0,0,0,0,0,0,0,0,0,0,0,0,0,0,0,0,0,0,0,0,0,0,0,0,0,0,0,0,0,0,0,0,0,0,0,0,0,0,0,0,0,0,0,0,0,0,0,-1.9196,-1.9196,0,-1.9219,-1.922,-1.922,-1.9214,-1.9214,-1.9214,-1.9213,-1.9236,-1.9237,-1.9238,0,0,0,0,0,0,0,0,0,0,0,0,0,-1.9146,-1.9147,-1.9196,-1.9196,-1.9196,-1.9219,-1.922,-1.922,-1.9215,-1.9214,-1.9213,-1.9213,-1.9235,-1.9237,-1.9238,0,0,0,0,0,0,0,0,0,0,0,0,0,-1.9168,-1.9147,-1.9196,-1.9196,-1.9197,-1.9219,-1.922,-1.922,-1.9215,-1.9214,-1.9213,-1.9213,-1.9235,-1.9237,-1.9238,-1.9261,0,0,-1.9243,-1.9243,0,0,0,0,0,0,0,0,-1.9167,-1.917,-1.9196,-1.9196,-1.9197,-1.9213,-1.921,-1.9234,-1.9215,-1.9208,-1.9213,-1.9212,-1.9229,-1.9231,-1.9237,-1.9262,-1.9263,-1.9243,-1.9244,-1.9244,-1.9245,0,0,0,0,0,0,0,-1.9165,-1.9169,-1.9205,-1.9196,-1.9197,-1.9196,-1.9198,-1.9215,-1.9222,-1.9208,-1.9208,-1.9211,-1.9229,-1.9235,-1.9237,-1.9263,-1.9243,-1.9244,-1.9245,-1.9246,-1.9311,-1.9311,0,0,0,0,0,0,-1.9164,-1.9168,-1.9204,-1.9206,-1.918,-1.9197,-1.92,-1.9209,-1.9221,-1.9223,-1.9212,-1.9211,-1.9233,-1.9235,-1.9238,-1.9267,-1.9244,-1.9246,-1.9247,-1.931,-1.9311,-1.9312,0,0,0,0,0,0,-1.9162,-1.9167,-1.9203,-1.9187,-1.9191,-1.9199,-1.9209,-1.9209,-1.9216,-1.9224,-1.9225,-1.9217,-1.9232,-1.9236,-1.9256,-1.9268,-1.9247,-1.9248,-1.9309,-1.931,-1.9311,-1.9325,0,0,0,0,0,0,-1.9161,-1.9166,-1.9175,-1.9187,-1.9192,-1.9221,-1.9209,-1.921,-1.9219,-1.9218,-1.9229,-1.923,-1.9232,-1.9254,-1.9257,-1.927,-1.9249,-1.9308,-1.931,-1.9311,-1.9323,-1.9326,-1.9329,0,0,0,0,0,-1.9159,-1.9177,-1.9176,-1.918,-1.9203,-1.9222,-1.9225,-1.9227,-1.922,-1.9229,-1.9234,-1.923,-1.9266,-1.9256,-1.926,-1.9273,-1.9307,-1.9309,-1.9311,-1.9322,-1.9326,-1.9329,0,0,0,0,0,0,-1.9166,-1.9179,-1.9177,-1.9199,-1.921,-1.9221,-1.9232,-1.923,-1.9242,-1.9241,-1.9242,-1.9245,-1.9266,-1.9271,-1.926,-1.9297,-1.9285,-1.9288,-1.9293,-1.9296,-1.9299,-1.9298,-1.925,0,0,0,0,0,-1.917,-1.9184,-1.9194,-1.9213,-1.9218,-1.9225,-1.9232,-1.9234,-1.9244,-1.9248,-1.9255,-1.9265,-1.9279,-1.9287,-1.93,-1.9324,-1.9327,-1.9335,-1.9338,-1.934,-1.9342,-1.9357,-1.9361,-1.9318,-1.9318,-1.9318,0,0,-1.9178,-1.9187,-1.9196,-1.9215,-1.9223,-1.9238,-1.9228,-1.9244,-1.9255,-1.925,-1.927,-1.9276,-1.9287,-1.931,-1.932,-1.9314,-1.9355,-1.9342,-1.9344,-1.9345,-1.936,-1.9364,-1.9367,-1.9319,-1.9319,-1.9319,0,0,-1.9202,-1.9209,-1.9227,-1.9235,-1.9248,-1.9252,-1.9257,-1.9268,-1.9272,-1.9293,-1.929,-1.9303,-1.9326,-1.9335,-1.9342,-1.9371,-1.9368,-1.9375,-1.939,-1.9404,-1.9408,-1.9411,-1.9423,-1.9427,-1.9377,-1.9377,-1.9377,0,-1.921,-1.9233,-1.9236,-1.9252,-1.9261,-1.9259,-1.9277,-1.9285,-1.9301,-1.9307,-1.9301,-1.9332,-1.9339,-1.9364,-1.9372,-1.9377,-1.9383,-1.9374,-1.9407,-1.941,-1.9413,-1.9424,-1.9429,-1.9378,-1.9378,-1.9378,-1.9378,0,-1.9244,-1.926,-1.9272,-1.929,-1.93,-1.9317,-1.9322,-1.9332,-1.9333,-1.9338,-1.9359,-1.9368,-1.9384,-1.939,-1.9389,-1.9416,-1.9412,-1.9407,-1.9396,-1.9418,-1.9429,-1.9433,-1.938,-1.9379,-1.9379,-1.9379,0,0,-1.9272,-1.9291,-1.9296,-1.9304,-1.9319,-1.9331,-1.9349,-1.9365,-1.9374,-1.9386,-1.9401,-1.9422,-1.9417,-1.9426,-1.9426,-1.9439,-1.9463,-1.9432,-1.9432,-1.9439,-1.9495,-1.95,-1.9505,-1.9461,-1.9462,-1.9463,-1.9494,0,-1.9297,-1.9329,-1.9333,-1.9361,-1.9377,-1.9375,-1.9391,-1.9402,-1.9407,-1.9421,-1.9426,-1.9442,-1.9434,-1.9439,-1.9451,-1.9458,-1.9475,-1.9455,-1.9476,-1.9477,-1.9475,-1.951,-1.9515,-1.9545,-1.9498,-1.9499,-1.9499,0,-1.9332,-1.9346,-1.9376,-1.9391,-1.9397,-1.9411,-1.9427,-1.944,-1.9453,-1.9456,-1.9467,-1.9467,-1.9485,-1.9473,-1.95,-1.9486,-1.9495,-1.95,-1.9501,-1.9504,-1.949,-1.9515,-1.9554,-1.9559,-1.9506,-1.9505,-1.9505,0,-1.9351,-1.9377,-1.9399,-1.9406,-1.9423,-1.9433,-1.9441,-1.9453,-1.9463,-1.9477,-1.9484,-1.9499,-1.9508,-1.952,-1.9524,-1.9515,-1.9551,-1.9539,-1.9555,-1.9555,-1.9563,-1.9563,-1.9605,-1.9566,-1.9566,-1.9566,-1.9566,0,-1.938,-1.9399,-1.9409,-1.9422,-1.9444,-1.9448,-1.9469,-1.9476,-1.9487,-1.9502,-1.9501,-1.9516,-1.952,-1.9535,-1.9538,-1.9561,-1.9564,-1.9567,-1.9568,-1.9568,-1.9568,-1.9575,-1.9573,-1.9567,-1.9567,-1.9567,-1.9567,0,-1.9405,-1.9412,-1.9437,-1.9451,-1.9455,-1.9471,-1.9483,-1.9497,-1.9502,-1.9522,-1.9527,-1.9535,-1.9553,-1.9559,-1.958,-1.9582,-1.9609,-1.9607,-1.9605,-1.9606,-1.9622,-1.9621,-1.9671,-1.9678,-1.9634,-1.9634,-1.9635,0,-1.9424,-1.9439,-1.9456,-1.9467,-1.9475,-1.9492,-1.9503,-1.9507,-1.9519,-1.9535,-1.9547,-1.9565,-1.958,-1.9609,-1.9617,-1.9634,-1.9633,-1.965,-1.9636,-1.9636,-1.9635,-1.9635,-1.9637,-1.9652,-1.9653,-1.9653,-1.9654,0,-1.9458,-1.9461,-1.9477,-1.9495,-1.9508,-1.9522,-1.9535,-1.9544,-1.9551,-1.9563,-1.9583,-1.9594,-1.9617,-1.9635,-1.9652,-1.966,-1.9658,-1.9658,-1.9663,-1.9664,-1.9662,-1.9665,-1.9614,-1.9657,-1.9657,-1.9656,-1.9656,-1.9656,-1.9481,-1.9495,-1.951,-1.9528,-1.9539,-1.9552,-1.9566,-1.9574,-1.9591,-1.961,-1.9612,-1.9633,-1.9646,-1.967,-1.9678,-1.9695,-1.969,-1.9696,-1.9698,-1.97,-1.9703,-1.9659,-1.9698,-1.9697,-1.9697,-1.9697,-1.9697,0,-1.9516,-1.9526,-1.9543,-1.9562,-1.9577,-1.9575,-1.959,-1.9603,-1.9621,-1.9634,-1.965,-1.9672,-1.9691,-1.9701,-1.9719,-1.973,-1.973,-1.9735,-1.9735,-1.9737,-1.9705,-1.97,-1.9735,-1.9735,-1.9735,-1.9735,-1.9735,-1.9735,-1.9536,-1.956,-1.9565,-1.9595,-1.9605,-1.9626,-1.9635,-1.9648,-1.9658,-1.9684,-1.97,-1.9706,-1.9719,-1.9738,-1.9755,-1.9758,-1.9765,-1.9771,-1.9773,-1.9743,-1.9739,-1.9735,-1.9731,-1.9772,-1.9772,-1.9804,-1.9804,-1.9804]}]]